Regional Weather Roundup
Issued by NWS

Home | Current Version | Previous Version | Graphics & Text | Print | Product List | Glossary On
Versions: 1 2 3 4 5 6 7 8 9 10 11 12 13 14 15 16 17 18 19 20 21 22 23 24 25 26 27 28 29 30 31 32 33 34 35 36 37 38 39 40 41 42 43 44 45 46 47 48 49 50
000
ASUS44 KMEG 260900
RWRTN
TENNESSEE HOURLY STATE WEATHER ROUNDUP
NATIONAL WEATHER SERVICE MEMPHIS TN
300 AM CST FRI DEC 26 2014

TNZ002-004-019-021-049-052-054-088>092-261000-
WEST TENNESSEE

CITY           SKY/WX    TMP DP  RH WIND       PRES   REMARKS
MEMPHIS INTL   CLOUDY    44  35  70 S10       30.18R
NWS MEMPHIS      N/A     40 N/A N/A MISG        N/A
JACKSON        CLOUDY    41  34  76 S7        30.20S
DYERSBURG      MOCLDY    41  27  56 S5        30.20R
UNION CITY     CLEAR     34  32  93 S7        30.18R WCI  28
PARIS          CLEAR     34  32  93 S6        30.20R WCI  29
LEXINGTON      CLEAR     37  34  87 CALM      30.20R
SAVANNAH       CLEAR     37  36  93 SE3       30.22S
$$

TNZ008-025-027-028-033-062-065-066-261000-
NORTH MIDDLE TENNESSEE

CITY           SKY/WX    TMP DP  RH WIND       PRES   REMARKS
NASHVILLE      PTCLDY    32  30  92 S5        30.25R WCI  27
CLARKSVILLE    PTCLDY    34  32  92 E3        30.22R
COOKEVILLE     CLEAR     27  27 100 CALM      30.24R
CROSSVILLE     CLEAR     31  27  85 CALM      30.24R
$$

TNZ061-075-076-078-094-096-097-261000-
SOUTH MIDDLE TENNESSEE

CITY           SKY/WX    TMP DP  RH WIND       PRES   REMARKS
FAYETTEVILLE   CLEAR     34  30  86 MISG      30.24R
TULLAHOMA      CLEAR     28  28 100 CALM      30.25S
WINCHESTER     CLEAR     30  30 100 CALM      30.26S
SHELBYVILLE    CLEAR     30  28  93 E3        30.26S
$$

TNZ017-018-042-046-047-261000-
NORTHEAST TENNESSEE

CITY           SKY/WX    TMP DP  RH WIND       PRES   REMARKS
TRI CITIES     CLEAR     28  26  92 CALM      30.26F
ELIZABETHTON   SUNNY     28  27  93 NE5       30.26S WCI  23
$$

TNZ012-013-036-069-073-074-261000-
CENTRAL EAST TENNESSEE

CITY           SKY/WX    TMP DP  RH WIND       PRES   REMARKS
KNOXVILLE      CLEAR     30  28  92 CALM      30.26
OAK RIDGE      FOG       30  29  96 CALM      30.29R VSB 1/4
GATLINBURG     SUNNY     25  25 100 CALM      30.26S
$$

TNZ083-085-099-261000-
SOUTHEAST TENNESSEE

CITY           SKY/WX    TMP DP  RH WIND       PRES   REMARKS
CHATTANOOGA    FOG       31  30  96 CALM      30.29R VSB 1/4
$$

SKY/WX REPORTED AS FAIR MEANS FEW OR NO CLOUDS BELOW
12 THOUSAND FEET.



USA.gov is the U.S. government's official web portal to all federal, state and local government web resources and services.